Location: Warszawa
(52.2500°N, 21.0000°E)
Time: 01:02:28
(UTC+02:00)

AO-27 - Pass Details

Date: 23 April 2024
Orbit: 783 x 797 km, 98.8° (Epoch: 26 May)

Event Time Altitude Azimuth Distance (km) Brightness Sun altitude
Exits shadow 20:36:50 - 159° (SSE) 3,095 10.3 -7.4°
Reaches altitude 10° 20:38:40 10° 159° (SSE) 2,364 9.7 -7.6°
Maximum altitude 20:43:54 83° 72° (ENE) 810 7.7 -8.3°
Drops below altitude 10° 20:49:10 10° 346° (NNW) 2,381 10.9 -8.9°
Sets 20:51:30 0° 345° (NNW) 3,314 11.8 -9.2°
